Wind_Speed
27 26 24 22 21 20 19 18 17 16 15 16 14 16 15 15 15 14 12 7 8 9 11 10 9 10 10 10 9 8 8 9 11 11 11 12 13 13 13 14 13 14 14
28 27 25 23 20 19 17 14 17 18 19 18 15 16 18 17 15 15 12 10 10 12 14 12 12 10 11 10 9 10 10 12 15 17 16 16 16 17 18 18 18 19 18
30 29 27 24 20 17 16 16 14 19 20 21 19 20 22 22 20 19 18 16 15 18 16 14 13 12 13 12 13 11 11 12 13 14 14 14 15 15 16 17 17 17 18
31 31 30 27 23 20 20 19 17 19 21 22 22 23 25 26 24 22 20 18 17 19 17 15 13 6 5 6 8 8 8 10 10 9 8 8 9 10 11 13 15 17 18
32 32 33 29 26 26 25 22 23 23 24 24 23 22 23 24 22 21 18 16 16 17 20 15 13 6 5 2 1 1 2 1 2 4 4 4 4 5 5 7 9 11 13
25 31 35 31 29 31 30 28 27 28 28 27 25 21 22 23 22 18 16 15 13 15 14 16 12 9 8 5 8 8 6 2 2 3 5 6 5 5 6 7 8 8 8
27 30 32 35 34 35 38 34 30 32 33 32 26 23 19 18 19 19 17 16 17 20 17 11 10 10 9 9 8 7 6 5 6 7 8 8 8 8 9 8 9 8 7
32 35 36 40 40 33 37 33 35 35 37 33 31 28 22 21 24 21 18 20 19 21 20 14 11 9 8 7 5 6 7 9 10 10 11 11 9 7 7 8 7 6 2
30 29 33 36 39 37 36 36 38 38 39 33 25 25 15 13 24 17 24 21 20 20 19 16 12 10 8 6 6 7 4 5 8 11 13 12 10 8 5 3 4 7 7
33 33 32 33 36 38 34 36 38 42 41 36 35 29 26 11 16 9 16 20 21 21 20 17 14 11 12 11 10 7 7 9 10 12 12 15 14 6 2 6 3 6 7
36 38 34 31 31 31 32 38 41 29 30 31 36 29 20 19 21 19 17 20 19 18 17 16 17 12 13 13 11 10 12 19 19 21 22 13 12 4 5 3 4 6 5
35 36 33 33 31 30 28 31 32 25 21 25 28 36 32 28 31 28 24 25 22 23 23 18 17 12 10 11 13 19 23 22 24 20 9 14 15 7 10 9 7 5 4
37 34 34 32 31 31 28 21 16 12 17 17 20 29 30 28 26 25 27 25 29 25 15 18 16 13 13 18 21 25 19 17 14 14 8 12 12 12 16 15 13 11 10
35 30 28 26 24 21 19 18 13 14 15 14 18 24 23 20 21 24 27 29 21 22 22 17 18 19 21 22 24 18 17 14 13 11 5 11 11 14 14 15 12 11 9
29 26 26 22 20 22 18 17 18 20 22 22 20 23 24 21 22 22 21 22 26 17 17 14 14 18 22 25 22 17 16 15 11 9 8 10 9 14 16 16 12 9 9
26 24 22 23 24 21 20 20 19 21 21 19 22 22 23 22 20 17 16 17 19 22 17 21 26 24 23 25 21 16 16 13 11 9 9 10 13 17 17 15 11 10 9
22 24 27 27 23 19 21 22 24 23 24 24 24 25 21 19 18 18 17 19 19 19 20 21 22 21 19 21 22 21 18 15 10 7 7 7 9 11 9 12 13 11 10
23 28 26 22 21 20 22 22 20 21 21 22 23 23 22 21 20 19 19 19 17 15 14 14 14 13 17 20 22 25 18 13 8 6 7 6 8 9 8 13 12 9 9
26 26 22 20 20 21 22 23 21 20 20 19 19 18 19 21 20 20 18 16 15 15 14 14 17 17 19 23 24 22 20 13 9 7 7 5 4 4 6 9 6 6 7
27 23 21 21 21 21 21 20 20 21 19 18 17 17 17 17 17 17 17 16 15 15 16 17 17 18 20 24 24 24 21 15 13 10 7 4 6 4 7 4 4 8 7
26 23 23 23 21 21 21 21 20 20 18 19 18 18 17 17 17 16 16 16 17 18 19 19 19 20 23 24 28 26 20 17 17 12 8 5 6 8 7 5 7 10 7
28 25 25 23 22 23 22 22 22 21 21 20 19 18 17 15 15 17 17 17 17 17 18 20 22 23 23 27 30 25 21 22 20 16 12 9 7 10 9 8 10 10 8
26 24 24 25 26 27 26 25 24 23 22 19 18 16 15 14 15 18 19 17 17 17 17 17 19 18 19 26 29 23 19 21 23 16 14 12 11 13 12 11 11 10 9
30 29 31 31 30 29 28 28 26 23 20 18 16 16 15 14 15 18 18 18 17 18 17 18 20 17 15 14 24 20 20 19 18 15 15 16 14 14 14 12 11 10 10
37 36 32 35 32 32 32 32 29 26 23 21 19 18 16 14 14 15 17 17 17 16 17 17 17 15 14 16 19 20 21 20 21 18 19 18 16 17 15 13 12 11 10
33 35 36 38 39 35 36 35 32 29 26 24 22 21 18 16 15 16 17 15 15 15 15 15 15 14 19 20 20 20 20 21 21 18 22 21 18 18 14 16 15 12 9
Wind_Direction
224 226 229 232 234 238 238 241 240 235 224 216 219 219 224 229 236 246 246 238 239 239 200 181 193 204 222 231 236 240 249 250 250 253 254 255 253 254 253 255 256 266 273
228 232 233 231 232 237 244 245 247 237 227 221 221 216 229 238 242 239 237 222 204 195 196 200 198 209 219 224 225 238 249 251 256 259 258 249 253 257 261 259 256 256 254
232 234 238 238 236 238 244 248 242 228 221 221 221 226 231 238 241 239 237 243 205 199 207 211 208 223 230 235 239 247 251 257 258 258 258 261 263 263 261 258 258 256 253
234 239 235 238 237 235 240 251 242 230 236 230 229 237 237 237 236 233 230 237 233 212 221 229 240 214 213 234 248 250 250 256 265 268 268 268 266 260 259 257 254 251 250
234 236 237 237 235 237 240 249 243 244 246 232 232 240 234 229 230 227 221 221 220 224 227 235 241 248 259 211 109 34 56 61 317 307 306 295 291 287 276 268 264 262 261
232 230 230 233 236 238 238 241 244 248 246 243 240 237 227 221 222 216 210 204 215 231 223 226 232 244 252 133 119 121 116 124 351 330 315 315 305 300 284 280 279 278 273
235 233 234 235 234 234 238 241 244 238 234 231 227 210 202 210 211 211 206 216 218 225 229 237 236 246 240 245 232 216 253 289 326 329 332 326 317 303 290 285 284 280 276
236 235 239 238 236 241 237 243 241 237 232 223 208 200 171 183 195 203 213 220 218 228 237 240 265 233 223 225 255 280 299 312 323 331 333 326 325 318 300 295 294 299 302
244 242 237 241 238 241 237 234 233 230 234 208 202 194 180 196 184 195 199 208 213 219 226 226 229 223 219 230 250 257 260 283 304 312 308 312 310 306 344 1 274 273 282
244 239 241 238 241 243 241 245 234 232 231 216 201 201 198 190 193 166 190 185 185 199 210 215 217 219 241 241 230 241 274 289 297 301 299 308 300 310 321 291 314 290 297
238 243 245 241 241 245 246 243 238 234 229 210 198 194 212 210 203 181 176 179 193 212 216 222 217 216 218 226 236 264 287 295 296 297 284 284 280 239 246 290 322 352 10
236 231 240 247 250 245 241 245 240 222 216 212 208 214 223 227 213 213 210 203 200 197 207 215 215 223 235 247 280 289 293 293 290 280 277 270 265 217 237 259 281 264 288
243 240 241 236 236 243 236 220 207 198 208 204 208 223 205 210 218 217 207 208 203 197 191 200 214 231 252 268 281 287 281 284 284 278 259 273 264 239 262 273 278 274 275
254 242 238 237 237 219 204 187 197 189 214 216 201 219 216 227 222 229 227 223 185 189 198 208 222 238 250 255 271 256 277 274 285 288 276 281 258 239 257 268 271 277 276
246 245 241 228 212 189 198 199 209 228 226 204 207 216 224 228 237 209 208 205 212 196 207 215 233 253 257 257 250 249 279 278 280 287 281 272 279 287 272 281 282 286 280
244 238 227 206 192 200 214 222 217 212 211 205 208 217 211 207 203 210 209 205 211 222 229 245 263 265 257 244 236 244 261 264 268 285 272 270 261 263 279 283 294 296 306
230 222 195 192 206 216 210 208 208 206 208 209 209 212 215 218 219 224 233 241 244 247 248 242 258 251 234 235 242 243 245 247 250 276 285 282 279 283 284 286 293 304 311
210 195 196 211 217 210 205 203 205 203 202 202 202 203 205 207 210 213 217 219 213 212 215 227 226 232 246 254 251 239 226 222 231 265 273 284 300 289 278 281 282 319 312
199 198 211 216 211 202 197 194 196 197 191 192 193 195 200 206 209 209 210 205 199 203 211 221 230 248 257 251 238 228 224 219 231 255 270 289 283 270 297 296 342 333 333
206 215 216 208 208 204 202 198 195 200 192 193 193 200 205 204 207 206 205 207 208 215 224 226 238 253 249 226 220 218 214 221 229 241 248 278 318 298 285 346 337 343 336
223 220 205 207 204 211 211 206 200 199 192 194 195 203 207 205 205 210 215 222 223 221 225 227 235 237 221 216 213 218 227 221 209 223 235 252 261 274 290 300 328 339 336
223 215 209 208 208 215 214 210 206 201 197 198 201 202 204 211 218 225 224 223 228 230 226 226 219 220 224 228 220 220 220 204 204 217 230 236 255 268 282 284 311 326 329
221 211 215 220 221 215 212 211 210 205 204 193 196 206 209 218 230 239 238 231 231 231 228 227 229 234 227 230 232 224 226 229 221 232 223 226 235 246 256 274 298 317 322
219 219 221 221 220 214 213 214 209 207 199 196 201 210 216 222 233 240 239 236 232 229 229 233 233 235 240 231 229 226 236 230 234 237 231 226 234 237 247 262 280 301 317
219 219 222 230 224 216 214 213 206 201 200 199 201 210 210 210 219 229 231 228 224 226 229 233 234 232 222 219 219 216 226 229 225 225 228 232 235 231 240 255 267 289 301
229 232 231 230 225 216 213 212 209 206 203 202 204 208 206 207 214 218 223 223 224 222 224 230 227 217 209 212 215 223 236 245 222 225 224 230 237 230 233 255 260 274 301
Height
1537 1540 1543 1545 1548 1549 1551 1552 1554 1555 1556 1557 1558 1559 1559 1559 1560 1562 1563 1565 1566 1566 1567 1567 1568 1569 1570 1571 1572 1572 1574 1574 1573 1573 1573 1572 1572 1572 1571 1571 1571 1572 1572
1536 1538 1540 1542 1544 1546 1548 1550 1551 1552 1553 1554 1555 1557 1557 1558 1559 1560 1562 1563 1564 1565 1565 1566 1567 1568 1569 1570 1571 1571 1572 1572 1572 1572 1570 1570 1569 1569 1569 1568 1568 1568 1567
1533 1534 1537 1540 1543 1544 1545 1547 1548 1550 1551 1551 1552 1553 1553 1555 1556 1556 1557 1559 1562 1562 1563 1564 1565 1566 1567 1569 1568 1569 1569 1570 1569 1569 1568 1568 1567 1566 1565 1565 1565 1564 1564
1529 1530 1531 1534 1538 1541 1542 1544 1545 1547 1548 1549 1549 1550 1549 1550 1551 1552 1552 1555 1558 1560 1562 1563 1564 1565 1566 1567 1567 1567 1567 1567 1567 1567 1566 1565 1565 1564 1564 1563 1562 1561 1560
1524 1526 1529 1529 1534 1536 1539 1540 1542 1544 1546 1546 1547 1548 1549 1547 1549 1549 1550 1551 1555 1557 1559 1561 1563 1564 1565 1566 1566 1567 1566 1565 1564 1564 1564 1563 1563 1563 1562 1561 1559 1559 1559
1518 1521 1524 1527 1528 1530 1532 1534 1535 1540 1542 1544 1544 1544 1546 1547 1547 1549 1550 1550 1552 1558 1558 1559 1561 1561 1563 1566 1567 1566 1566 1565 1564 1563 1563 1563 1562 1562 1561 1560 1558 1557 1556
1513 1516 1518 1521 1522 1523 1525 1526 1528 1530 1535 1535 1537 1539 1544 1548 1548 1547 1545 1548 1546 1551 1556 1558 1558 1560 1562 1563 1565 1565 1564 1564 1563 1564 1564 1564 1563 1562 1561 1560 1559 1556 1555
1506 1509 1512 1513 1516 1518 1520 1523 1525 1526 1527 1529 1528 1533 1537 1543 1543 1543 1546 1544 1544 1548 1550 1554 1558 1559 1560 1561 1562 1566 1564 1563 1563 1563 1563 1564 1563 1562 1561 1558 1558 1555 1553
1502 1504 1506 1507 1509 1511 1514 1516 1518 1519 1521 1521 1512 1528 1534 1539 1537 1541 1540 1544 1543 1546 1548 1551 1555 1557 1558 1560 1561 1564 1562 1562 1562 1560 1562 1562 1562 1561 1562 1559 1557 1554 1551
1495 1498 1500 1502 1504 1505 1507 1510 1510 1511 1512 1512 1513 1522 1523 1533 1533 1537 1538 1537 1543 1545 1546 1548 1550 1553 1554 1557 1559 1561 1560 1561 1560 1558 1560 1559 1561 1560 1561 1559 1558 1553 1550
1489 1491 1493 1496 1498 1499 1501 1504 1503 1505 1508 1510 1510 1517 1524 1529 1533 1535 1538 1538 1543 1546 1545 1544 1548 1548 1552 1556 1557 1556 1556 1556 1556 1556 1556 1558 1558 1558 1557 1556 1555 1553 1552
1484 1486 1489 1491 1493 1494 1495 1497 1499 1502 1505 1509 1511 1511 1520 1523 1525 1529 1532 1536 1541 1541 1543 1542 1545 1547 1550 1556 1556 1555 1555 1554 1552 1552 1553 1556 1556 1555 1553 1551 1550 1550 1550
1481 1481 1483 1484 1485 1488 1489 1493 1495 1498 1504 1505 1501 1514 1515 1515 1519 1527 1528 1533 1536 1538 1541 1542 1542 1544 1549 1552 1553 1553 1552 1551 1550 1550 1550 1552 1553 1554 1551 1548 1549 1548 1548
1477 1474 1475 1479 1481 1484 1484 1488 1493 1494 1498 1499 1498 1509 1510 1517 1517 1522 1523 1526 1531 1533 1538 1538 1541 1543 1546 1547 1548 1550 1548 1548 1547 1548 1546 1548 1548 1549 1549 1547 1545 1544 1544
1471 1473 1475 1476 1477 1481 1484 1485 1486 1486 1491 1492 1499 1502 1507 1511 1515 1516 1519 1522 1526 1531 1535 1536 1538 1540 1542 1543 1544 1545 1546 1546 1546 1546 1545 1544 1543 1544 1546 1546 1544 1542 1538
1468 1469 1473 1474 1477 1478 1483 1484 1485 1486 1492 1490 1492 1503 1507 1506 1511 1514 1519 1521 1524 1528 1530 1532 1534 1535 1538 1539 1540 1541 1542 1543 1543 1543 1544 1546 1543 1540 1543 1543 1542 1540 1537
1463 1464 1467 1471 1473 1476 1479 1481 1485 1486 1488 1490 1493 1499 1503 1505 1507 1510 1513 1517 1521 1524 1526 1528 1530 1533 1535 1537 1537 1538 1538 1539 1540 1541 1543 1544 1543 1541 1539 1540 1541 1538 1536
1459 1461 1465 1469 1471 1473 1476 1478 1482 1484 1484 1488 1493 1497 1499 1502 1504 1507 1509 1511 1513 1515 1520 1526 1529 1531 1533 1534 1537 1536 1536 1537 1539 1539 1539 1539 1542 1540 1538 1538 1536 1537 1535
1459 1461 1465 1468 1472 1473 1474 1476 1481 1483 1484 1488 1491 1494 1497 1501 1503 1504 1508 1508 1509 1511 1516 1520 1525 1527 1529 1530 1531 1532 1533 1538 1539 1539 1537 1537 1539 1539 1536 1538 1536 1536 1534
1458 1461 1462 1463 1468 1470 1474 1474 1477 1482 1481 1485 1487 1491 1494 1497 1500 1502 1505 1505 1506 1507 1511 1515 1518 1519 1521 1524 1526 1528 1530 1533 1537 1536 1537 1534 1534 1538 1537 1536 1538 1536 1535
1458 1457 1455 1463 1463 1469 1472 1474 1476 1478 1477 1481 1483 1488 1492 1494 1498 1500 1502 1503 1503 1503 1505 1509 1512 1515 1516 1518 1522 1525 1528 1530 1533 1534 1534 1532 1533 1535 1536 1537 1536 1535 1534
1452 1454 1458 1459 1460 1465 1469 1473 1474 1473 1474 1478 1482 1485 1488 1492 1495 1499 1500 1499 1501 1501 1500 1502 1505 1507 1510 1514 1518 1520 1525 1527 1530 1531 1531 1532 1533 1533 1534 1535 1536 1535 1532
1451 1450 1454 1456 1458 1460 1465 1470 1471 1471 1472 1473 1477 1482 1483 1488 1492 1497 1498 1496 1495 1498 1499 1499 1500 1505 1507 1514 1514 1516 1520 1524 1526 1527 1529 1530 1531 1532 1533 1534 1534 1534 1534
1445 1443 1447 1446 1453 1456 1462 1465 1465 1469 1470 1471 1475 1479 1481 1483 1488 1493 1494 1493 1493 1494 1494 1496 1496 1498 1503 1505 1512 1513 1517 1522 1524 1525 1526 1526 1528 1530 1531 1532 1532 1533 1531
1432 1435 1438 1443 1447 1452 1456 1461 1462 1464 1466 1468 1471 1475 1478 1479 1483 1487 1490 1488 1488 1490 1491 1491 1494 1496 1502 1504 1508 1511 1514 1518 1519 1521 1522 1524 1526 1527 1528 1529 1529 1529 1527
1427 1431 1433 1433 1438 1444 1450 1455 1457 1461 1462 1463 1468 1473 1474 1477 1480 1483 1486 1485 1485 1487 1488 1491 1491 1494 1500 1503 1505 1508 1511 1513 1515 1517 1519 1522 1522 1524 1525 1525 1526 1526 1525